Location: Newark
(21.1200°N, 73.4000°E)
Time: 09:43:55
(UTC+00:00)

Vanguard 1 Rocket - Visible Passes

Search period start: 17 January 2021 00:00
Search period end: 27 January 2021 00:00
Orbit: 655 x 4221 km, 34.3° (Epoch: 16 January)

Date Brightness Start Highest point End Pass type
(mag) Time Alt. Az. Time Alt. Az. Time Alt. Az.
17 Jan 8.7 13:43:35 10° WNW 13:51:09 83° NNE 14:06:35 10° ESE visible
17 Jan 10.3 16:09:08 10° W 16:19:46 40° SSW 16:38:30 10° SSE visible
17 Jan 11.6 18:44:29 10° SW 18:52:31 13° SSW 19:01:59 10° S visible
18 Jan 9.5 14:57:38 10° WNW 15:06:35 56° SSW 15:24:09 10° SE visible
18 Jan 11.2 17:26:57 10° WSW 17:37:20 21° SSW 17:52:02 10° S visible
19 Jan 8.7 13:46:51 10° WNW 13:54:15 80° SSW 14:09:15 10° SE visible
19 Jan 10.6 16:13:16 10° W 16:23:10 30° SSW 16:39:28 10° SSE visible
20 Jan 9.9 15:01:17 10° W 15:09:52 43° SSW 15:25:49 10° SE visible
20 Jan 11.4 17:33:27 10° WSW 17:41:09 15° SSW 17:50:55 10° S visible
21 Jan 9.0 13:50:14 10° WNW 13:57:26 61° SSW 14:11:36 10° SE visible
21 Jan 10.9 16:18:00 10° WSW 16:26:44 22° SSW 16:39:51 10° SSE visible
22 Jan 10.3 15:05:15 10° W 15:13:18 31° SSW 15:27:05 10° SSE visible
23 Jan 9.5 13:53:48 10° W 14:00:43 45° SSW 14:13:37 10° SE visible
23 Jan 11.2 16:23:56 10° WSW 16:30:30 15° SSW 16:39:08 10° S visible
24 Jan 11.8 00:32:33 10° SSE 00:34:40 10° SSE 00:36:38 10° SSE visible
24 Jan 10.7 15:09:46 10° WSW 15:16:52 22° SSW 15:27:47 10° SSE visible
25 Jan 10.0 13:57:40 10° W 14:04:08 32° SSW 14:15:14 10° SSE visible
26 Jan 11.6 00:28:41 10° S 00:38:37 17° SSE 00:45:54 10° ESE visible
26 Jan 11.0 15:15:24 10° SW 15:20:36 15° SSW 15:27:27 10° S visible
26 Jan 11.9 23:21:39 10° SSE 23:23:54 10° SSE 23:26:01 10° SSE visible
